Regional Weather Roundup
Issued by NWS

Home | Current Version | Previous Version | Graphics & Text | Print | Product List | Glossary On
Versions: 1 2 3 4 5 6 7 8 9 10 11 12 13 14 15 16 17 18 19 20 21 22 23 24 25 26 27 28 29 30 31 32 33 34 35 36 37 38 39 40 41 42 43 44 45 46 47 48 49 50
000
ASUS43 KTOP 221059
RWRKS

WEATHER ROUNDUP FOR KANSAS
NATIONAL WEATHER SERVICE GOODLAND KS
600 AM CDT SUN APR 22 2018

NOTE:  "FAIR" INDICATES FEW OR NO CLOUDS BELOW 12,000 FEET WITH NO
SIGNIFICANT WEATHER AND/OR OBSTRUCTIONS TO VISIBILITY.

KSZ001>006-013>018-027>032-041>047-221200-
NORTHWEST KANSAS

CITY           SKY/WX    TMP DP  RH WIND       PRES   REMARKS
GOODLAND       CLOUDY    38  37  97 CALM      30.21S FOG
HAYS           CLOUDY    42  40  92 NW10      30.18F
HILL CITY      CLOUDY    42  41  96 NW6       30.22S FOG
RUSSELL        CLOUDY    42  42 100 NW12      30.16S
$$

KSZ061>065-074>080-084>089-221200-
SOUTHWEST KANSAS

CITY           SKY/WX    TMP DP  RH WIND       PRES   REMARKS
DODGE CITY     CLOUDY    40  38  93 N9        30.18F
GARDEN CITY    CLEAR     34  33  96 NW6       30.19S FOG
GREAT BEND     CLOUDY    42  41  96 NW15G21   30.17S
LIBERAL        CLEAR     35  35 100 NW7       30.20F FOG
$$

KSZ066>073-081>083-090>101-221200-
SOUTHEAST KANSAS

CITY           SKY/WX    TMP DP  RH WIND       PRES   REMARKS
CHANUTE        CLOUDY    49  45  86 N9        30.02R
COFFEYVILLE    CLOUDY    49  48  97 NW8       30.00R
HUTCHINSON     CLOUDY    44  42  93 NW13      30.11F
MEDICINE LODGE   N/A     43  41  93 N14G21    30.12F
NEWTON         CLOUDY    43  41  93 N14       30.10R
PARSONS        CLOUDY    50  48  93 NE5       30.01R
WICHITA INTL   LGT RAIN  45  44  97 NW14      30.09R
WICHITA JABRA  CLOUDY    44  43  96 NW13      30.08R
WICHITA MCCONL LGT RAIN  44  44  98 N15       30.08R
WINFIELD       CLOUDY    45  45 100 NW10      30.08R
$$

KSZ007>012-019>026-033>040-048>060-102>105-221200-
NORTHEAST KANSAS

CITY           SKY/WX    TMP DP  RH WIND       PRES   REMARKS
CONCORDIA      CLEAR     40  36  86 NW9       30.16R
EMPORIA        CLOUDY    47  38  71 N10       30.06R
LAWRENCE       CLOUDY    51  38  60 NE8       30.09R
MANHATTAN      CLOUDY    47  37  68 N6        30.11R
OLATHE IND     LGT RAIN  49  40  71 NE10      30.08S
OLATHE EXE     LGT RAIN  48  39  71 NE10      30.07S
SALINA         CLOUDY    44  42  93 NW13      30.14R
TOPEKA BILLARD CLOUDY    50  38  63 N7        30.09R
TOPEKA FORBES  CLOUDY    51  36  56 NE7       30.08R
$$



USA.gov is the U.S. government's official web portal to all federal, state and local government web resources and services.